Tracking 29892 objects as of 21-Nov-2024
HD Live streaming from Space Station
objects crossing your sky now

ONEWEB-0603

Track ONEWEB-0603 now!
10-day predictions
ONEWEB-0603 is classified as:


NORAD ID: 54667
Int'l Code: 2022-166AB
Perigee: 1,183.3 km
Apogee: 1,186.5 km
Inclination: 87.9 °
Period: 108.9 minutes
Semi major axis: 7555 km
RCS: Unknown
Launch date: December 8, 2022
Source: United Kingdom (UK)
Launch site: AIR FORCE EASTERN TEST RANGE (AFETR)
Your satellite tracking list
Your tracking list is empty




NASA's NSSDC Master Catalog

Two Line Element Set (TLE):
1 54667U 22166AB  24325.52824316  .00000030  00000-0  41183-4 0  9996
2 54667  87.9291 358.2641 0002162 102.0024 258.1352 13.21825113 96159
Source of the keplerian elements: AFSPC